sat.trackr.live / text

‹ back to catalog

PRAETORIAN SDA_608

NORAD 65571 · 2025-203G

PAYLOAD ACTIVE UNKNOWN

§ Identity

Operator
Country
US
Launch date
2025-09-10
Launch site
AFWTR
Launch vehicle
Mass (kg)
RCS (m²)

Purposes: military

External: N2YO · Heavens-Above · Gunter

§ Orbital elements

Epoch: 2026-05-25T02:00:16.694784Z

Period
104.06 min
Inclination
81.3024°
Eccentricity
0.0005023
Mean motion
13.83813638 rev/d
Perigee alt
946.7 km
Apogee alt
954.1 km
Semi-major
7,328.5 km
B*
7.0393e-5
RAAN
32.1960°
Arg perigee
263.3790°
Mean anomaly
96.6794°
Rev number
3,549

§ Raw data

PRAETORIAN SDA_6081 65571U 25203G   26145.08352656  .00000090  00000+0  70393-4 0  99932 65571  81.3024  32.1960 0005023 263.3790  96.6794 13.83813638 35491

JSON: /api/v1/satellites/65571 · /tle

For live sub-satellite position, see the globe view (requires WebGL).

§ Visibility from observer

Set your observer location to see the next 7 days of passes ≥ 10°. The values pass through the URL so the page stays shareable.

No JS? Fill the form by hand. The geolocation button needs JavaScript.